Regional Weather Roundup
Issued by NWS Little Rock, AR

Home | Current Version | Previous Version | Graphics & Text | Print | Product List | Glossary On
Versions: 1 2 3 4 5 6 7 8 9 10 11 12 13 14 15 16 17 18 19 20 21 22 23 24 25 26 27
000
ASUS44 KLZK 230805
RWRLZK

WEATHER ROUNDUP FOR ARKANSAS
NATIONAL WEATHER SERVICE LITTLE ROCK AR
300 AM CDT WED APR 23 2014

NOTE: "FAIR" INDICATES FEW OR NO CLOUDS BELOW 12,000 FEET WITH NO
SIGNIFICANT WEATHER AND/OR OBSTRUCTIONS TO VISIBILITY.

ARZ001-003-010-029-230900-
NORTHWEST ARKANSAS

CITY           SKY/WX    TMP DP  RH WIND       PRES   REMARKS
FAYETTEVILLE   PTCLDY    43  41  93 CALM      29.99F
FORT SMITH     CLEAR     52  45  77 NE5       29.96F
HARRISON       PTCLDY    50  38  63 CALM      30.00F
BENTONVILLE    PTCLDY    48  39  71 CALM      29.99F
ROGERS         PTCLDY    52  44  74 E7        29.99F
SILOAM SPGS    CLEAR     52  36  54 E6        29.99S
HIGHFILL       PTCLDY    49  40  71 CALM      29.98F
$$

ARZ004-005-016-230900-
NORTH CENTRAL ARKANSAS

CITY           SKY/WX    TMP DP  RH WIND       PRES   REMARKS
BATESVILLE     CLEAR     52  43  71 NW3       30.00S
FLIPPIN        CLEAR     46  36  66 CALM      30.01S
MTN HOME       PTCLDY    53  33  46 E6        30.00S
$$

ARZ040-041-230900-
WEST CENTRAL ARKANSAS

CITY           SKY/WX    TMP DP  RH WIND       PRES   REMARKS
MENA           CLEAR     48 N/A N/A CALM      29.98S
MOUNT IDA      CLEAR     49  47  93 CALM      29.95S
$$

ARZ009-017-025-026-028-230900-
NORTHEAST ARKANSAS

CITY           SKY/WX    TMP DP  RH WIND       PRES   REMARKS
CORNING        FAIR      52  41  66 N5        30.02R
JONESBORO      CLEAR     51  42  71 NE3       30.00R
NEWPORT        CLEAR     53  47  80 N6        30.01S
WALNUT RIDGE   CLEAR     52  41  66 N7        30.00S
BLYTHEVILLE    CLEAR     47  43  86 N7        29.99S
$$

ARZ022-023-033-042-044-230900-
CENTRAL ARKANSAS

CITY           SKY/WX    TMP DP  RH WIND       PRES   REMARKS
LITTLE ROCK    CLEAR     55  50  83 CALM      29.97S
N LITTLE ROCK    N/A     58  43  56 NW5       29.97S
JACKSONVILLE   CLEAR     49  46  89 NE3       29.98R
SEARCY         CLEAR     52  44  74 N5        30.00R
HOT SPRINGS    CLEAR     52  49  89 CALM      29.97F
RUSSELLVILLE   CLEAR     48  45  89 CALM      29.97S
CLINTON        FAIR      45  43  93 CALM      30.01F
$$

ARZ036-230900-
EAST ARKANSAS

CITY           SKY/WX    TMP DP  RH WIND       PRES   REMARKS
WEST MEMPHIS   CLEAR     54  43  66 CALM      29.97R
$$

ARZ050-053-066-070-073-230900-
SOUTHWEST ARKANSAS

CITY           SKY/WX    TMP DP  RH WIND       PRES   REMARKS
ARKADELPHIA    FAIR      55  55 100 CALM      29.97S
CAMDEN         CLEAR     54  52  94 MISG      29.96R
TEXARKANA      CLEAR     57  54  89 E5        29.94S
EL DORADO      CLEAR     56  55  97 CALM      29.95F
DE QUEEN       CLEAR     52  51  97 E5        29.93F
$$

ARZ056-057-069-230900-
SOUTHEAST ARKANSAS

CITY           SKY/WX    TMP DP  RH WIND       PRES   REMARKS
PINE BLUFF     CLEAR     55  52  89 CALM      29.96S
STUTTGART      CLEAR     54  50  87 N9        29.98R
MONTICELLO     CLEAR     52  50  93 CALM      29.95S

$$





USA.gov is the U.S. government's official web portal to all federal, state and local government web resources and services.